Hourly Weather Newcastle

Today, 5 July, Sunday

Time Temperature Precipitation Wind Pressure Humidity
00:00 +6°C° 0 mm 5 mps 764 mmHg 67%
01:00 +6°C° 0 mm 5 mps 764 mmHg 68%
02:00 +6°C° 0 mm 5 mps 764 mmHg 70%
03:00 +6°C° 0 mm 5 mps 764 mmHg 73%
04:00 +5°C° 0 mm 6 mps 764 mmHg 75%
05:00 +6°C° 0 mm 5 mps 764 mmHg 77%
06:00 +6°C° 0 mm 5 mps 765 mmHg 79%
07:00 +5°C° 0 mm 4 mps 765 mmHg 81%
08:00 +7°C° 0 mm 4 mps 765 mmHg 74%
09:00 +10°C° 0 mm 4 mps 765 mmHg 67%
10:00 +12°C° 0 mm 4 mps 766 mmHg 61%
11:00 +14°C° 0 mm 4 mps 765 mmHg 56%
12:00 +15°C° 0 mm 4 mps 765 mmHg 52%
13:00 +18°C° 0 mm 4 mps 765 mmHg 48%
14:00 +17°C° 0 mm 4 mps 765 mmHg 51%
15:00 +17°C° 0 mm 3 mps 765 mmHg 54%
16:00 +16°C° 0 mm 3 mps 764 mmHg 57%
17:00 +14°C° 0 mm 3 mps 765 mmHg 61%
18:00 +13°C° 0 mm 2 mps 766 mmHg 66%
19:00 +10°C° 0 mm 2 mps 766 mmHg 71%
20:00 +10°C° 0 mm 2 mps 767 mmHg 73%
21:00 +9°C° 0 mm 3 mps 767 mmHg 75%
22:00 +9°C° 0 mm 3 mps 767 mmHg 77%
23:00 +9°C° 0 mm 3 mps 767 mmHg 79%

Tomorrow, 6 July, Monday

Time Temperature Precipitation Wind Pressure Humidity
00:00 +8°C° 0 mm 3 mps 768 mmHg 82%
01:00 +8°C° 0 mm 3 mps 768 mmHg 85%
02:00 +8°C° 0 mm 3 mps 768 mmHg 83%
03:00 +8°C° 0 mm 3 mps 767 mmHg 82%
04:00 +8°C° 0 mm 3 mps 767 mmHg 81%
05:00 +8°C° 0 mm 3 mps 768 mmHg 84%
06:00 +7°C° 0 mm 3 mps 768 mmHg 87%
07:00 +5°C° 0 mm 3 mps 769 mmHg 90%
08:00 +8°C° 0 mm 3 mps 769 mmHg 82%
09:00 +11°C° 0 mm 3 mps 769 mmHg 73%
10:00 +13°C° 0 mm 3 mps 770 mmHg 65%
11:00 +14°C° 0 mm 3 mps 769 mmHg 61%
12:00 +16°C° 0 mm 3 mps 768 mmHg 58%
13:00 +18°C° 0 mm 3 mps 768 mmHg 55%
14:00 +17°C° 0 mm 3 mps 768 mmHg 59%
15:00 +15°C° 0 mm 4 mps 768 mmHg 63%
16:00 +15°C° 0 mm 4 mps 768 mmHg 67%
17:00 +13°C° 0 mm 4 mps 768 mmHg 74%
18:00 +12°C° 0 mm 3 mps 769 mmHg 82%
19:00 +10°C° 0 mm 3 mps 769 mmHg 89%
20:00 +10°C° 0 mm 3 mps 770 mmHg 88%
21:00 +10°C° 0 mm 3 mps 770 mmHg 87%
22:00 +10°C° 0 mm 3 mps 770 mmHg 87%
23:00 +10°C° 0 mm 3 mps 770 mmHg 87%

Day after tomorrow, 7 July, Tuesday

Time Temperature Precipitation Wind Pressure Humidity
00:00 +10°C° 0 mm 3 mps 770 mmHg 87%
01:00 +10°C° 0 mm 3 mps 770 mmHg 88%
02:00 +9°C° 0 mm 3 mps 770 mmHg 89%
03:00 +9°C° 0 mm 3 mps 770 mmHg 89%
04:00 +9°C° 0 mm 3 mps 770 mmHg 90%
05:00 +9°C° 0 mm 3 mps 770 mmHg 91%
06:00 +7°C° 0 mm 4 mps 770 mmHg 92%
07:00 +7°C° 0 mm 4 mps 771 mmHg 93%
08:00 +10°C° 0 mm 4 mps 771 mmHg 83%
09:00 +12°C° 0 mm 4 mps 771 mmHg 74%
10:00 +14°C° 0 mm 4 mps 771 mmHg 65%
11:00 +15°C° 0 mm 4 mps 771 mmHg 60%
12:00 +17°C° 0 mm 4 mps 770 mmHg 55%
13:00 +18°C° 0 mm 4 mps 770 mmHg 50%
14:00 +17°C° 0 mm 4 mps 770 mmHg 54%
15:00 +15°C° 0 mm 4 mps 770 mmHg 58%
16:00 +15°C° 0 mm 4 mps 770 mmHg 62%
17:00 +13°C° 0.1 mm 4 mps 770 mmHg 69%
18:00 +12°C° 0.1 mm 4 mps 771 mmHg 77%
19:00 +11°C° 0.1 mm 4 mps 771 mmHg 84%
20:00 +11°C° 0.8 mm 4 mps 771 mmHg 87%
21:00 +10°C° 0.8 mm 5 mps 771 mmHg 89%
22:00 +12°C° 0.8 mm 5 mps 772 mmHg 92%
23:00 +12°C° 0.2 mm 4 mps 772 mmHg 91%

8 July, Wednesday

Time Temperature Precipitation Wind Pressure Humidity
00:00 +12°C° 0.2 mm 4 mps 771 mmHg 91%
01:00 +12°C° 0.2 mm 4 mps 771 mmHg 91%
02:00 +12°C° 0.1 mm 4 mps 771 mmHg 90%
03:00 +12°C° 0.1 mm 3 mps 771 mmHg 89%
04:00 +12°C° 0.1 mm 3 mps 771 mmHg 89%
05:00 +12°C° 0 mm 3 mps 771 mmHg 87%
06:00 +11°C° 0 mm 3 mps 772 mmHg 86%
07:00 +11°C° 0 mm 3 mps 772 mmHg 84%
08:00 +12°C° 0 mm 3 mps 772 mmHg 83%
09:00 +13°C° 0 mm 2 mps 772 mmHg 81%
10:00 +14°C° 0 mm 2 mps 773 mmHg 80%
11:00 +15°C° 0 mm 2 mps 772 mmHg 72%
12:00 +16°C° 0 mm 2 mps 772 mmHg 65%
13:00 +17°C° 0 mm 3 mps 771 mmHg 57%
14:00 +16°C° 0 mm 3 mps 771 mmHg 59%
15:00 +16°C° 0 mm 3 mps 771 mmHg 62%
16:00 +15°C° 0 mm 2 mps 771 mmHg 65%
17:00 +14°C° 0 mm 2 mps 771 mmHg 72%
18:00 +13°C° 0 mm 2 mps 771 mmHg 79%
19:00 +11°C° 0 mm 1 mps 772 mmHg 85%
20:00 +11°C° 0 mm 1 mps 772 mmHg 86%
21:00 +10°C° 0 mm 1 mps 772 mmHg 86%
22:00 +10°C° 0 mm 1 mps 772 mmHg 86%
23:00 +10°C° 0 mm 1 mps 772 mmHg 87%

9 July, Thursday

Time Temperature Precipitation Wind Pressure Humidity
00:00 +10°C° 0 mm 1 mps 772 mmHg 88%
01:00 +9°C° 0 mm 1 mps 771 mmHg 89%
02:00 +9°C° 0 mm 1 mps 771 mmHg 89%
03:00 +9°C° 0 mm 1 mps 771 mmHg 90%
04:00 +9°C° 0 mm 1 mps 771 mmHg 90%
05:00 +8°C° 0 mm 1 mps 771 mmHg 91%
06:00 +8°C° 0 mm 1 mps 772 mmHg 92%
07:00 +8°C° 0 mm 1 mps 772 mmHg 92%
08:00 +10°C° 0 mm 1 mps 772 mmHg 85%
09:00 +12°C° 0 mm 1 mps 772 mmHg 78%
10:00 +13°C° 0 mm 1 mps 772 mmHg 71%
11:00 +14°C° 0 mm 1 mps 771 mmHg 68%
12:00 +16°C° 0 mm 1 mps 770 mmHg 64%
13:00 +18°C° 0 mm 1 mps 770 mmHg 61%
14:00 +18°C° 0 mm 1 mps 769 mmHg 64%
15:00 +16°C° 0 mm 1 mps 769 mmHg 67%
16:00 +16°C° 0 mm 1 mps 769 mmHg 70%
17:00 +15°C° 0 mm 2 mps 769 mmHg 77%
18:00 +13°C° 0 mm 2 mps 770 mmHg 84%
19:00 +12°C° 0 mm 2 mps 770 mmHg 91%
20:00 +10°C° 0 mm 3 mps 770 mmHg 91%
21:00 +10°C° 0 mm 3 mps 770 mmHg 92%
22:00 +10°C° 0 mm 3 mps 770 mmHg 92%
23:00 +10°C° 0 mm 3 mps 770 mmHg 92%

10 July, Friday

Time Temperature Precipitation Wind Pressure Humidity
00:00 +10°C° 0 mm 3 mps 770 mmHg 93%
01:00 +9°C° 0 mm 2 mps 770 mmHg 93%
02:00 +9°C° 0 mm 2 mps 769 mmHg 94%
03:00 +9°C° 0 mm 2 mps 769 mmHg 95%
04:00 +9°C° 0 mm 2 mps 769 mmHg 95%
05:00 +9°C° 0 mm 2 mps 769 mmHg 95%
06:00 +9°C° 0 mm 2 mps 769 mmHg 94%
07:00 +9°C° 0 mm 2 mps 770 mmHg 94%
08:00 +10°C° 0 mm 2 mps 769 mmHg 85%
09:00 +13°C° 0 mm 2 mps 769 mmHg 76%
10:00 +15°C° 0 mm 2 mps 769 mmHg 67%
11:00 +17°C° 0 mm 2 mps 768 mmHg 61%
12:00 +18°C° 0 mm 2 mps 768 mmHg 56%
13:00 +19°C° 0 mm 2 mps 767 mmHg 51%
14:00 +19°C° 0 mm 2 mps 767 mmHg 54%
15:00 +19°C° 0 mm 2 mps 767 mmHg 58%
16:00 +18°C° 0 mm 2 mps 767 mmHg 62%
17:00 +17°C° 0 mm 2 mps 767 mmHg 66%
18:00 +16°C° 0 mm 2 mps 767 mmHg 70%
19:00 +15°C° 0 mm 2 mps 767 mmHg 74%
20:00 +15°C° 0 mm 2 mps 768 mmHg 75%
21:00 +14°C° 0 mm 1 mps 768 mmHg 76%
22:00 +14°C° 0 mm 1 mps 768 mmHg 77%
23:00 +14°C° 0 mm 1 mps 767 mmHg 79%
Show more